Regional Weather Roundup
Issued by NWS Midland/Odessa, TX

Skip options and go directly to product.
Home | Oldest Version | Previous Version | Current Version | All | Text Only | Save Text | Print | Product List | Glossary On

Skip product version selection by date and time.   
019
ASUS44 KMAF 262001
RWRMAF
MIDLAND AREA WEATHER ROUNDUP
NATIONAL WEATHER SERVICE MIDLAND TX
300 PM CDT FRI AUG 26 2016

...IN SOUTHWEST TEXAS AND SOUTHEAST NEW MEXICO...

CITY           SKY/WX    TMP DP  RH WIND       PRES   REMARKS
ALPINE         CLOUDY    73  58  58 S3        30.22F
ANDREWS        NOT AVBL
ARTESIA        SUNNY     81  63  54 CALM      30.10F
BIG SPRING     CLOUDY    73  68  84 NE5       30.10F
CARLSBAD       MOSUNNY   80  64  58 CALM      30.07F
DRYDEN           N/A     89  65  44 SE9       30.01F
FORT STOCKTON  CLOUDY    78  59  51 W9        30.08F
GUAD PASS      MOSUNNY   76  56  49 SW5       30.22F
HOBBS          MOSUNNY   81  61  50 VRB5      30.12F
MARFA          CLOUDY   N/A N/A N/A SE8       30.19F
MIDLAND AIRPK  CLOUDY    81  66  60 S7        30.08F
MIDLAND INTL   CLOUDY    76  66  71 SE15      30.08S THUNDER
ODESSA         LGT RAIN  81  65  58 SE8       30.08F
PECOS          CLOUDY    82  65  58 CALM      30.05F
PRESIDIO       NOT AVBL
SEMINOLE       PTSUNNY   80  63  56 E5        30.12S
SNYDER           N/A     71  66  84 CALM      30.09F
WINK           CLOUDY    82  64  54 VRB5      30.05F
$$
...OTHER STATIONS IN TEXAS...

CITY           SKY/WX    TMP DP  RH WIND       PRES   REMARKS
ABILENE        MOSUNNY   90  64  42 SE6       30.03F
AMARILLO       MOSUNNY   80  62  54 S15       30.10F
AUSTIN         MOSUNNY   91  70  49 S3        29.96F
BROWNSVILLE    MOSUNNY   93  73  52 E14       29.92F HX 102
CORPUS CHRISTI PTSUNNY   93  72  50 E10       29.94F HX 101
DALLAS FTW     CLOUDY    89  68  49 CALM      29.98F
DEL RIO        SUNNY     91  68  46 SE16      29.96F
EL PASO        MOSUNNY   85  56  37 S5        30.08F
HOUSTON INT    CLOUDY    85  73  67 E6        29.97F
LUBBOCK        MOSUNNY   79  60  52 VRB3      30.11F
SAN ANGELO     MOSUNNY   89  59  36 S3        30.01F
SAN ANTONIO    PTSUNNY   88  69  53 SE8       29.98F
WACO           PTSUNNY   90  71  53 E7        29.98F
WICHITA FALLS  NOT AVBL
$$
...OTHER LOCATIONS IN NEW MEXICO...

CITY           SKY/WX    TMP DP  RH WIND       PRES   REMARKS
ALAMAGORDO     SUNNY     84  48  28 S9        30.10F
ALBUQUERQUE    PTSUNNY   76  46  34 S7        30.18F
CANNON AFB     NOT AVBL
CLOVIS         MOSUNNY   81  55  41 SW13G18   30.13F
HOLLOMAN AFB   SUNNY     86  52  30 S9        30.07F
ROSWELL        SUNNY     81  60  48 VRB7      30.10F
RUIDOSO          N/A     66  48  52 S14       30.29F
SANTA FE       CLOUDY    73  46  38 S7G18     30.23F
TRUTH OR CONSE PTSUNNY   79  50  36 W13       30.15S
TUCUMCARI      MOSUNNY   85  53  33 SW13      30.08F
$$

USA.gov is the U.S. government's official web portal to all federal, state and local government web resources and services.